User: anonymous   Login
Location: Navarre
(52.9016°N, 113.4144°W)
Time: 12:36:19
(UTC+00:00)
Language:

Envisat - Orbit

View from above orbital plane
View from above orbital plane
View from above satellite
View from above satellite

Ground track
Ground track

The orbit data is extracted from the following two-line orbital elements,

1 27386U 02009A   22023.23843247  .00000081  00000-0  40091-4 0  9996
2 27386  98.1687  11.2809 0001204  86.6479 284.4586 14.38070553 42666
Epoch (UTC): 23 January 2022 05:43:20
Eccentricity: 0.0001204
inclination: 98.1687°
perigee height: 764 km
apogee height: 766 km
right ascension of ascending node: 11.2809°
argument of perigee: 86.6479°
revolutions per day: 14.38070553
mean anomaly at epoch: 284.4586°
orbit number at epoch: 4266

The dashed part of the orbit path shows where the satellite is in the earth's shadow,  

DLR